Find GPS III SV07

NORAD ID: 62339 Int'l Des: 2024-242 Owner: SFSSC Country: US Constellation: GPS operational
MEOCIRCULARGNSS

リアルタイム位置

3D地球を読み込み中...

GPS III SV07について

説明を読み込み中...

次回通過

Passes for default location (London). Set your location on the main map for personalized predictions.

高度履歴

Loading altitude history...

軌道要素

1 62339U 24242A 26136.17689848 -.00000064 00000-0 00000-0 0 9997
2 62339 54.8632 335.4791 0017144 3.2214 171.9079 2.00570749 10610
Epoch: May 16, 2026 • Age: 11 hours

現在のステータス

高度 20215.8 km
速度 3.87 km/s
衛星直下点 33.23°N, 29.14°E
打ち上げ日 Dec 17, 2024
運用期間 1.4 years
タイプ navigation

技術仕様

分類 Payload
質量 4352.00 kg
乾燥質量 2160.00 kg
総質量 4352.00 kg
長さ 3.40 m
直径 1.80 m
スパン 14.00 m
形状 Box + 2 pan
製造者 LMSSD
バスタイプ A2100
フェーズステータス In Orbit
所有者/国 SFSSC/US

Most Searched